2022/12/19 00:00:00,24.6,-3.1
2022/12/19 00:10:00,24.5,-3.2
2022/12/19 00:20:00,25.1,-3.1
2022/12/19 00:30:00,25.7,-3.0
2022/12/19 00:40:00,25.5,-3.4
2022/12/19 00:50:00,25.1,-3.2
2022/12/19 01:00:00,25.3,-3.4
2022/12/19 01:10:00,25.1,-3.3
2022/12/19 01:20:00,24.8,-3.0
2022/12/19 01:30:00,24.6,-3.0
2022/12/19 01:40:00,24.4,-2.9
2022/12/19 01:50:00,24.4,-2.8
2022/12/19 02:00:00,24.4,-3.0
2022/12/19 02:10:00,24.5,-3.1
2022/12/19 02:20:00,24.5,-3.2
2022/12/19 02:30:00,24.4,-2.8
2022/12/19 02:40:00,24.4,-3.3
2022/12/19 02:50:00,24.3,-3.4
2022/12/19 03:00:00,24.2,-3.6
2022/12/19 03:10:00,24.1,-3.6
2022/12/19 03:20:00,24.0,-4.3
2022/12/19 03:30:00,23.9,-4.1
2022/12/19 03:40:00,23.9,-3.8
2022/12/19 03:50:00,23.8,-3.3
2022/12/19 04:00:00,23.7,-3.2
2022/12/19 04:10:00,23.8,-3.3
2022/12/19 04:20:00,23.9,-3.5
2022/12/19 04:30:00,23.8,-3.6
2022/12/19 04:40:00,23.6,-3.6
2022/12/19 04:50:00,23.5,-3.4
2022/12/19 05:00:00,23.6,-3.5
2022/12/19 05:10:00,23.7,-3.3
2022/12/19 05:20:00,24.3,-3.3
2022/12/19 05:30:00,24.3,-3.2
2022/12/19 05:40:00,24.3,-3.0
2022/12/19 05:50:00,24.6,-3.3
2022/12/19 06:00:00,25.0,-2.9
2022/12/19 06:10:00,25.2,-2.8
2022/12/19 06:20:00,25.3,-2.9
2022/12/19 06:30:00,25.1,-2.6
2022/12/19 06:40:00,24.9,-2.3
2022/12/19 06:50:00,25.3,-2.2
2022/12/19 07:00:00,26.2,-2.7
2022/12/19 07:10:00,26.2,-2.6
2022/12/19 07:20:00,26.6,-2.4
2022/12/19 07:30:00,26.4,-2.5
2022/12/19 07:40:00,26.2,-2.3
2022/12/19 07:50:00,26.5,-2.0
2022/12/19 08:00:00,26.5,-2.2
2022/12/19 08:10:00,26.8,-2.2
2022/12/19 08:20:00,27.4,-2.4
2022/12/19 08:30:00,28.5,-2.0
2022/12/19 08:40:00,29.2,-2.0
2022/12/19 08:50:00,29.9,-1.8
2022/12/19 09:00:00,30.6,-1.7
2022/12/19 09:10:00,31.2,-1.8
2022/12/19 09:20:00,31.2,-1.7
2022/12/19 09:30:00,31.7,-1.3
2022/12/19 09:40:00,31.6,-0.8
2022/12/19 09:50:00,31.5,-0.6
2022/12/19 10:00:00,31.4,-0.9
2022/12/19 10:10:00,33.5,-1.1
2022/12/19 10:20:00,38.5,-0.4
2022/12/19 10:30:00,37.9, 0.4
2022/12/19 10:40:00,37.6,-0.3
2022/12/19 10:50:00,37.3,-0.4
2022/12/19 11:00:00,37.3,-0.3
2022/12/19 11:10:00,37.3,-0.5
2022/12/19 11:20:00,37.0,-0.4
2022/12/19 11:30:00,37.1, 0.6
2022/12/19 11:40:00,37.0, 1.1
2022/12/19 11:50:00,36.8, 0.1
2022/12/19 12:00:00,36.5,-0.4
2022/12/19 12:10:00,36.5, 0.9
2022/12/19 12:20:00,36.3, 0.8
2022/12/19 12:30:00,36.1, 0.9
2022/12/19 12:40:00,36.0, 0.7
2022/12/19 12:50:00,35.9, 0.5
2022/12/19 13:00:00,35.7, 0.7
2022/12/19 13:10:00,35.5, 0.3
2022/12/19 13:20:00,35.6, 0.4
2022/12/19 13:30:00,35.5, 0.0
2022/12/19 13:40:00,35.4, 0.6
2022/12/19 13:50:00,35.4, 0.7
2022/12/19 14:00:00,35.2, 0.7
2022/12/19 14:10:00,35.0,-0.3
2022/12/19 14:20:00,34.9, 0.3
2022/12/19 14:30:00,34.6,-0.1
2022/12/19 14:40:00,35.0, 0.0
2022/12/19 14:50:00,35.1,-0.2
2022/12/19 15:00:00,35.1,-0.5
2022/12/19 15:10:00,35.5,-0.4
2022/12/19 15:20:00,35.5,-0.4
2022/12/19 15:30:00,35.3,-0.2
2022/12/19 15:40:00,35.0,-0.8
2022/12/19 15:50:00,34.8,-0.7
2022/12/19 16:00:00,34.6,-0.9
2022/12/19 16:10:00,34.5,-1.1
2022/12/19 16:20:00,34.3,-1.1
2022/12/19 16:30:00,34.1,-1.2
2022/12/19 16:40:00,34.0,-1.7
2022/12/19 16:50:00,33.8,-1.8
2022/12/19 17:00:00,33.5,-1.8
2022/12/19 17:10:00,33.4,-2.1
2022/12/19 17:20:00,33.1,-1.7
2022/12/19 17:30:00,32.9,-1.6
2022/12/19 17:40:00,32.9,-2.2
2022/12/19 17:50:00,32.9,-2.1
2022/12/19 18:00:00,32.7,-2.1
2022/12/19 18:10:00,32.5,-2.4
2022/12/19 18:20:00,32.4,-2.4
2022/12/19 18:30:00,32.2,-2.5
2022/12/19 18:40:00,32.2,-2.4
2022/12/19 18:50:00,32.2,-1.7
2022/12/19 19:00:00,32.1,-2.8
2022/12/19 19:10:00,32.0,-2.6
2022/12/19 19:20:00,31.8,-2.4
2022/12/19 19:30:00,31.7,-2.4
2022/12/19 19:40:00,31.6,-2.1
2022/12/19 19:50:00,31.6,-2.2
2022/12/19 20:00:00,31.4,-2.1
2022/12/19 20:10:00,31.2,-2.2
2022/12/19 20:20:00,31.1,-2.2
2022/12/19 20:30:00,30.9,-2.1
2022/12/19 20:40:00,30.8,-1.9
2022/12/19 20:50:00,30.8,-2.1
2022/12/19 21:00:00,30.6,-2.0
2022/12/19 21:10:00,30.5,-2.0
2022/12/19 21:20:00,30.4,-2.4
2022/12/19 21:30:00,30.2,-2.3
2022/12/19 21:40:00,30.1,-2.6
2022/12/19 21:50:00,30.0,-3.0
2022/12/19 22:00:00,30.0,-2.5
2022/12/19 22:10:00,29.9,-2.9
2022/12/19 22:20:00,29.7,-3.1
2022/12/19 22:30:00,29.5,-3.2
2022/12/19 22:40:00,29.4,-3.1
2022/12/19 22:50:00,29.3,-3.0
2022/12/19 23:00:00,29.2,-3.3
2022/12/19 23:10:00,29.0,-3.6
2022/12/19 23:20:00,28.9,-3.5
2022/12/19 23:30:00,28.8,-2.8
2022/12/19 23:40:00,28.7,-3.3
2022/12/19 23:50:00,28.6,-3.3
